Regional Weather Roundup
Issued by NWS

Home | Current Version | Previous Version | Text Only | Print | Product List | Glossary Off
Versions: 1 2 3 4 5 6 7 8 9 10 11 12 13 14 15 16 17 18 19 20 21 22 23 24 25 26 27

000
ASUS45 KTFX 271810
RWRMT
MONTANA REGIONAL WEATHER ROUNDUP
NATIONAL WEATHER SERVICE GREAT FALLS MT
1200 PM MDT TUE SEP 27 2016

NOTE: "FAIR" INDICATES FEW OR NO CLOUDS BELOW 12000 FEET WITH NO
SIGNIFICANT WEATHER AND/OR OBSTRUCTIONS TO VISIBILITY.

MTZ001>007-043-271900-
WEST OF THE DIVIDE

CITY           SKY/WX    TMP DP  RH WIND       PRES   REMARKS
KALISPELL      SUNNY     66  48  52 SE7       30.05F
MISSOULA       SUNNY     63  45  51 CALM      30.13F
BUTTE          SUNNY     68  41  37 CALM      30.23F
MULLAN PASS    SUNNY     62  42  47 VRB5      30.22R
ANACONDA         N/A     75  36  23 S13       30.17F
DEER LODGE       N/A     70  43  37 NE5       30.18F
EUREKA           N/A     75  48  38 W3        30.00S
HAMILTON         N/A     64  48  55 N5        30.12F
LIBBY            N/A     63  48  59 N5        30.03S
PLAINS           N/A     67  47  48 CALM      30.07F
RONAN            N/A     72  50  45 W2        30.12S
$$

MTZ008-052>055-271900-
SOUTHWEST MONTANA

CITY           SKY/WX    TMP DP  RH WIND       PRES   REMARKS
BOZEMAN        SUNNY     67  44  43 CALM      30.18F
DILLON         SUNNY     67  39  35 SW6       30.21F
W YELLOWSTONE  SUNNY     57  39  51 CALM      30.33F
ENNIS          SUNNY     70  37  30 SW5       30.26F
THREE FORKS      N/A     68  64  86 S1        30.14F
TWIN BRIDGES     N/A     66  41  40 S5        30.17F
$$

MTZ009-010-012-014-046-048-049-054-271900-
EAST SLOPES AND CENTRAL MONTANA

CITY           SKY/WX    TMP DP  RH WIND       PRES   REMARKS
CUT BANK       SUNNY     80  41  24 W18G24    30.01S
GREAT FALLS    SUNNY     78  41  26 SW21G28   30.03F
MALMSTROM AFB  SUNNY     78  45  30 SW14G24   30.03F
HELENA         SUNNY     67  44  43 CALM      30.13F
AUGUSTA          N/A     77  39  25 SW7G14    30.06F
BOWMANS CRNR     N/A     73  40  31 S21       30.06F
CHOTEAU          N/A     79  41  25 S12       30.05S
CONRAD           N/A     80  44  27 S8        30.04S
FAIRFIELD        N/A     77  42  28 S16       30.03F
POWER            N/A     77  40  26 SW18      30.03F
RAYNESFORD       N/A     78  38  23 W18G30    30.06S
$$

MTZ011-013-016-021-045-047-050-051-271900-
NORTH CENTRAL MONTANA

CITY           SKY/WX    TMP DP  RH WIND       PRES   REMARKS
HAVRE          SUNNY     78  44  29 SW18G26   29.95F
LEWISTOWN      SUNNY     76  45  33 NW8       30.07F
N BAR RANCH      N/A     77  37  24 NW13G20   30.11S
CHINOOK          N/A     79  50  36 W6        29.93F
DENTON           N/A     79  37  22 W15G22    30.00F
GEYSER           N/A     77  39  25 SW7G14    30.06F
GRASS RANGE      N/A     77  42  28 W12       30.02F
JUDITH GAP       N/A     76  38  25 NW16G26   30.10F
ROY              N/A     79  44  29 MISG      30.02S
STANFORD         N/A     77  36  23 NW21G29   30.08S
WINIFRED         N/A     76  45  32 MISG      30.03F
$$

MTZ017>020-022>027-061-062-271900-
NORTHEAST MONTANA

CITY           SKY/WX    TMP DP  RH WIND       PRES   REMARKS
GLASGOW        SUNNY     69  49  48 W5        29.95F
JORDAN           N/A     81  45  28 W13       29.96F
SIDNEY         SUNNY     67  52  58 S7        29.95F
WOLF POINT     SUNNY     67  51  56 SW5       29.95F
PLENTYWOOD       N/A     70  46  43 SE10      29.94F
POPLAR           N/A     66  52  59 SW5       29.95F
SCOBEY           N/A     71  47  42 S3        29.92F
$$

MTZ028>42-056>058-271900-
SOUTHCENTRAL AND SOUTHEAST MONTANA

CITY           SKY/WX    TMP DP  RH WIND       PRES   REMARKS
BAKER          SUNNY     71  49  45 W12       30.01F
BILLINGS       SUNNY     74  47  38 SW15      30.08F
LIVINGSTON     SUNNY     77  39  25 SW15      30.14S
MILES CITY     SUNNY     71  51  49 SW7       30.01F
BIG TIMBER     SUNNY     75  43  31 W18G25    30.14F
EKALAKA          N/A     71  45  39 W7        30.03F
FORSYTH          N/A     73  50  43 W9        30.01F
HARLOWTON        N/A     76  40  27 W20       30.10F
LAUREL           N/A     75  44  33 S8        30.07F
ROUNDUP          N/A     74  45  35 S14       29.97F
$$

REGIONAL REPORTS...DAKOTAS

CITY           SKY/WX    TMP DP  RH WIND       PRES   REMARKS
WILLISTON      SUNNY     67  49  52 VRB5      29.96F
MINOT          SUNNY     65  38  36 VRB6      29.96F
DICKINSON      SUNNY     70  45  40 W7        29.97F
BEACH            N/A     73  50  43 SW9       30.01F
CROSBY           N/A     70  43  37 S6        29.97F
WATFORD CITY     N/A     70  46  43 CALM      29.96F
BISMARCK       SUNNY     66  40  38 NW5       29.98F
GRAND FORKS    MOSUNNY   56  43  61 NW16G25   29.90F
FARGO          SUNNY     61  40  45 NW20      29.88F
BUFFALO SD       N/A     76  47  35 NW10      29.95F
RAPID CITY     SUNNY     79  42  26 VRB7      30.04F
$$

REGIONAL REPORTS...WYOMING/IDAHO/WASHINGTON

CITY           SKY/WX    TMP DP  RH WIND       PRES   REMARKS
GILLETTE       SUNNY     74  41  30 W7        30.12F
SHERIDAN       SUNNY     82  42  24 N9        30.10F
BUFFALO WY     SUNNY     79  34  19 N8        30.17F
CODY           SUNNY     72  47  40 CALM      30.19F
YELLOWSTONE LA   N/A     52  41  66 VRB3      30.40F
IDAHO FALLS    SUNNY     64  45  49 NW5       30.24F
SALMON         SUNNY     61  43  51 CALM      30.21F
BOISE          SUNNY     73  43  33 VRB3      30.11F
SPOKANE        MOSUNNY   72  45  37 SW10      30.06S
$$

REGIONAL REPORTS...ALBERTA

CITY           SKY/WX    TMP DP  RH WIND       PRES   REMARKS
EDMONTON       PTSUNNY   55  37  50 W13G24    30.00R
CALGARY        PTSUNNY   55  37  50 N24G31    30.05R
LETHBRIDGE     MOSUNNY   81  45  28 W20G31    29.93R
MEDICINE HAT   MOSUNNY   82  45  26 SW26G33   29.84F
WATERTON GATE    N/A     75  41  29 SW13G21     N/A
CARDSTON         N/A     77  43  29 W8          N/A
ONEFOUR          N/A     79  45  29 S3          N/A
$$

REGIONAL REPORTS...SASKATCHEWAN

CITY           SKY/WX    TMP DP  RH WIND       PRES   REMARKS
SWIFT CURRENT  SUNNY     77  45  31 W14G20    29.87F
REGINA         SUNNY     70  45  40 SE14G22   29.90F
SASKATOON      MOSUNNY   70  48  46 S15       29.83F
CYPRESS HILLS    N/A     75  41  29 SW8         N/A
VAL MARIE        N/A     72  46  40 SW8         N/A
ROCKGLEN         N/A     72  46  40 SW14        N/A
ASSINIBOIA       N/A     55  39  54 NW20G29     N/A
$$




USA.gov is the U.S. government's official web portal to all federal, state and local government web resources and services.